Weather History for KSNA - April, 2013

Change the Weather History Date:

Friday, April 12, 2013

  Actual Average Record
Temperature  
Mean Temperature 64 °F 61 °F  
Max Temperature 69 °F 69 °F 97 °F (2008)
Min Temperature 58 °F 53 °F 45 °F (1999)
Degree Days  
Heating Degree Days 1 4  
Month to date heating degree days 25 57  
Since 1 July heating degree days 1045 1144  
Cooling Degree Days 0 0  
Month to date cooling degree days 0 0  
Year to date cooling degree days 4 15  
Growing Degree Days 12 (Base 50)    
Moisture  
Dew Point 50 °F    
Average Humidity 67    
Maximum Humidity 77    
Minimum Humidity 56    
Precipitation  
Precipitation 0.00 in 0.03 in 0.82 in (2010)
Month to date precipitation 0.01 0.31  
Year to date precipitation 1.68 8.07  
Since 1 July precipitation 4.70  
Snow  
Snow 0.00 in - - ()
Month to date snowfall 0.0  
Year to date snowfall 0.0  
Since 1 July snowfall 0.0  
Snow Depth 0.00 in    
Sea Level Pressure  
Sea Level Pressure 29.84 in    
Wind  
Wind Speed 5 mph (SSW)    
Max Wind Speed 12 mph    
Max Gust Speed 17 mph    
Visibility 9 miles    
Events      
T = Trace of Precipitation, MM = Missing Value Source: NWS Daily Summary

Daily Weather History Graph

Daily Weather History Graph

Search for Another Location

Airport or City:

Trip Planner

Search our weather history database for the weather conditions in past years. The results will help you decide how hot, cold, wet, or windy it might be!

Date:

Astronomy

Apr. 12, 2013 Rise Set
Actual Time 6:24 AM PDT 7:20 PM PDT
Civil Twilight 5:58 AM PDT 7:46 PM PDT
Nautical Twilight 5:28 AM PDT 8:16 PM PDT
Astronomical Twilight 4:57 AM PDT 8:47 PM PDT
Moon 7:43 AM PDT (4/12) 9:48 PM PDT (4/12)
Length of Visible Light 13h 47m
Length of Day
12h 56m
Waxing Crescent, 6% of the Moon is Illuminated
Apr 12
Waxing Crescent
Apr 18
First Quarter
Apr 25
Full
May 2
Last Quarter
May 9
New

Hourly Weather History & Observations

Time (PDT) Temp. Dew Point Humidity Pressure Visibility Wind Dir Wind Speed Gust Speed Precip Events Conditions
12:53 AM 57.9 °F 48.9 °F 72% 29.83 in 10.0 mi SE 5.8 mph - N/A   Overcast
1:53 AM 57.9 °F 48.9 °F 72% 29.82 in 10.0 mi SSE 9.2 mph - N/A   Overcast
2:53 AM 57.9 °F 50.0 °F 75% 29.81 in 10.0 mi South 6.9 mph - N/A   Overcast
3:53 AM 57.9 °F 50.0 °F 75% 29.82 in 10.0 mi SE 4.6 mph - N/A   Overcast
4:53 AM 57.9 °F 48.9 °F 72% 29.81 in 10.0 mi ESE 4.6 mph - N/A   Overcast
5:53 AM 57.9 °F 48.9 °F 72% 29.80 in 10.0 mi SSE 4.6 mph - N/A   Overcast
6:53 AM 57.9 °F 48.9 °F 72% 29.83 in 9.0 mi Calm Calm - N/A   Overcast
7:53 AM 59.0 °F 48.9 °F 69% 29.84 in 9.0 mi Calm Calm - N/A   Overcast
8:53 AM 59.0 °F 48.9 °F 69% 29.85 in 9.0 mi South 3.5 mph - N/A   Overcast
9:53 AM 62.1 °F 50.0 °F 65% 29.86 in 9.0 mi Calm Calm - N/A   Overcast
10:35 AM 62.6 °F 50.0 °F 63% 29.86 in 9.0 mi Calm Calm - N/A   Scattered Clouds
10:53 AM 64.9 °F 50.0 °F 58% 29.86 in 10.0 mi Calm Calm - N/A   Partly Cloudy
11:53 AM 66.0 °F 50.0 °F 56% 29.86 in 10.0 mi SSW 9.2 mph - N/A   Partly Cloudy
12:53 PM 66.9 °F 51.1 °F 57% 29.84 in 10.0 mi SW 8.1 mph - N/A   Partly Cloudy
1:53 PM 66.9 °F 51.1 °F 57% 29.82 in 10.0 mi SW 9.2 mph - N/A   Partly Cloudy
2:53 PM 66.9 °F 51.1 °F 57% 29.81 in 10.0 mi West 8.1 mph - N/A   Partly Cloudy
3:53 PM 66.0 °F 51.1 °F 59% 29.80 in 10.0 mi Variable 5.8 mph - N/A   Partly Cloudy
4:53 PM 64.9 °F 51.1 °F 61% 29.79 in 10.0 mi WSW 6.9 mph - N/A   Partly Cloudy
5:53 PM 64.9 °F 51.1 °F 61% 29.79 in 10.0 mi WSW 5.8 mph - N/A   Clear
6:53 PM 62.1 °F 52.0 °F 70% 29.80 in 9.0 mi WSW 5.8 mph - N/A   Partly Cloudy
7:53 PM 59.0 °F 52.0 °F 78% 29.83 in 8.0 mi SW 6.9 mph - N/A   Partly Cloudy
8:53 PM 57.9 °F 52.0 °F 81% 29.86 in 8.0 mi SSW 5.8 mph - N/A   Partly Cloudy
9:53 PM 57.0 °F 52.0 °F 83% 29.89 in 7.0 mi SW 5.8 mph - N/A   Scattered Clouds
10:39 PM 57.2 °F 51.8 °F 82% 29.89 in 8.0 mi SW 3.5 mph - N/A   Overcast
10:53 PM 57.0 °F 52.0 °F 83% 29.89 in 8.0 mi SW 4.6 mph - N/A   Overcast
11:53 PM 57.0 °F 52.0 °F 83% 29.91 in 9.0 mi South 4.6 mph - N/A   Overcast